Location: Bucharest
(44.4268°N, 26.1025°E)
Time: 10:00:00
(UTC+03:00)

SPROUT - Pass Details

Date: 26 June 2022
Orbit: 588 x 598 km, 97.9° (Epoch: 15 August)

Event Time Altitude Azimuth Distance (km) Brightness Sun altitude
Exits shadow 00:52:31 14° 93° (E) 1,683 ? -21.9°
Maximum altitude 00:54:15 17° 64° (ENE) 1,501 ? -22.0°
Drops below altitude 10° 00:57:02 10° 22° (NNE) 1,936 ? -22.0°
Sets 00:59:45 0° 3° (N) 2,831 ? -22.1°
